This is the latest recevied weather packets stored in our database for station/object KD8OUK. If no packets are shown the sender has not sent any weather packets the latest 10 day(s).
| Time | Temp. | Humidity | Pressure | Rain* | Wind** | Luminosity | Snow |
|---|---|---|---|---|---|---|---|
| 1777488623 | 15.56° C | 82% | 1010.1 hPa | 0 mm | - | - | - |
| 1777488333 | 15.56° C | 81% | 1010 hPa | 0 mm | - | - | - |
| 1777488025 | 16.11° C | 80% | 1010 hPa | 0 mm | - | - | - |
| 1777487717 | 15.56° C | 85% | 1010 hPa | 0 mm | - | - | - |
| 1777487427 | 15.56° C | 84% | 1010 hPa | 0 mm | - | - | - |
| 1777487120 | 15.56° C | 83% | 1010.1 hPa | 0 mm | - | - | - |
| 1777486829 | 16.11° C | 80% | 1010.2 hPa | 0 mm | - | - | - |
| 1777486521 | 16.11° C | 80% | 1010.2 hPa | 0 mm | - | - | - |
| 1777486232 | 16.67° C | 80% | 1010 hPa | 0 mm | - | - | - |
| 1777485924 | 15° C | 85% | 1010 hPa | 0 mm | - | - | - |
| 1777485616 | 15° C | 86% | 1010.3 hPa | 0 mm | - | - | - |
| 1777485326 | 15.56° C | 87% | 1010.3 hPa | 0 mm | - | - | - |
| 1777485018 | 14.44° C | 90% | 1010.3 hPa | 0 mm | - | - | - |
| 1777484728 | 14.44° C | 92% | 1010.2 hPa | 0 mm | - | - | - |
| 1777484421 | 13.89° C | 93% | 1010.2 hPa | 0 mm | - | - | - |
| 1777484131 | 13.89° C | 93% | 1010.3 hPa | 0 mm | - | - | - |
| 1777483824 | 14.44° C | 91% | 1010.3 hPa | 0 mm | - | - | - |
| 1777483515 | 14.44° C | 92% | 1010.3 hPa | 0 mm | - | - | - |
| 1777483225 | 14.44° C | 94% | 1010.4 hPa | 0 mm | - | - | - |
| 1777482930 | 13.89° C | 96% | 1010.4 hPa | 0 mm | - | - | - |
| 1777482622 | 12.78° C | 99% | 1010.6 hPa | 0 mm | - | - | - |
| 1777482326 | 12.22° C | 99% | 1010.6 hPa | 0 mm | - | - | - |
| 1777482025 | 12.22° C | 99% | 1010.5 hPa | 0 mm | - | - | - |
| 1777481716 | 12.22° C | 99% | 1010.5 hPa | 0 mm | - | - | - |
| 1777481421 | 12.22° C | 99% | 1010.5 hPa | 0 mm | - | - | - |
* Rain latest hour (hover to see other rain measurements)
** Current wind speed in m/s (hover to see current wind gust speed)